Weather Roundup
Issued by NWS Chicago, IL

Home | Current Version | Previous Version | Graphics & Text | Print | Product List | Glossary On
Versions: 1 2 3 4 5 6 7 8 9 10 11 12 13 14 15 16 17 18 19 20 21 22 23 24 25 26 27 28 29 30 31 32 33 34 35 36 37 38 39 40 41 42 43 44 45 46 47 48 49 50
000
NZUS59 KLOT 251709
HRRLOT

CHICAGO AREA WEATHER ROUNDUP
NATIONAL WEATHER SERVICE CHICAGO/ROMEOVILLE IL
1200 PM CDT THU MAY 25 2017

NOTE: "FAIR" INDICATES FEW OR NO CLOUDS BELOW 12,000 FEET WITH NO
SIGNIFICANT WEATHER AND/OR OBSTRUCTIONS TO VISIBILITY.

* THESE STATIONS ARE NOT UNDER NWS QUALITY CONTROL. THEY ALSO MAY NOT
  REPORT WEATHER SUCH AS PRECIPITATION OR FOG.

ILZ005-006-012>014-019>023-251800-
NORTHEAST ILLINOIS

CITY           SKY/WX    TMP DP  RH WIND       PRES   REMARKS
OHARE          CLOUDY    63  52  67 N12       29.62S
MIDWAY         CLOUDY    62  53  72 NW14      29.62S
AURORA         CLOUDY    61  55  81 NW14      29.66R
LANSING*       CLOUDY    58  55  88 N10       29.63S
JOLIET*        CLOUDY    63  55  77 NW8       29.65R
WAUKEGAN       MOSUNNY   65  55  70 N9G20     29.62S
DUPAGE AIRPORT CLOUDY    63  55  75 NW12      29.64R
WHEELING       CLOUDY    63  55  75 N13       29.63F
KANKAKEE*      CLOUDY    62  54  73 N9        29.64R
MORRIS*        CLOUDY    59  53  80 NW6       29.65S
LEWIS AIRPORT* CLOUDY    60  57  87 N10       29.64S
NORTHERLY ISL    N/A     57  51  80 MISG        N/A
$$

WIZ051-052-058>065-066-070>072-251800-
SOUTHEAST WISCONSIN

CITY           SKY/WX    TMP DP  RH WIND       PRES   REMARKS
MILWAUKEE      MOSUNNY   61  52  72 N15G23    29.65R
KENOSHA*       MOSUNNY   64  54  69 N12G17    29.64R
RACINE*        MOSUNNY   61  51  70 N15G23    29.66R
WAUKESHA       CLOUDY    61  52  72 NW12      29.66S
WEST BEND      PTSUNNY   63  54  72 N6        29.65S
$$

INZ001>003-010>013-019-020-251800-
NORTHWEST INDIANA

CITY           SKY/WX    TMP DP  RH WIND       PRES   REMARKS
GARY*          NOT AVBL
MICHIGAN CITY* NOT AVBL
RENSSELAER*    NOT AVBL
VALPARAISO     CLOUDY    56  51  84 NW14G20   29.61R
$$

LMZ740>746-251800-
SOUTHERN LAKE MICHIGAN

STATION/POSITION TIME  SKY/WX   TEMP WIND        PRES    VSBY
                                AIR  DIR/SP/G
                 (UTC)          (F)  (DEG/KT/KT) (MB)    (MI)
HARRISON CRIB    1640            53  340/ 17/ 18   N/A
BURNHAM HARBOR   1700            58  340/ 10/ 17   N/A
CALUMET HARBOR   1642            55  340/ 10/ 15 1003.2R
BURNS HARBOR     1640            49  330/ 13/ 17 1003.7R
MICHIGAN CITY    1640            49  320/ 15/ 16   N/A
$$

ABBREVIATIONS USED IN REMARKS
   TC - TEMPERATURE IN CELSIUS
  WCI - WIND CHILL INDEX
   HX - HEAT INDEX
  VSB - VISIBILITY
$$




USA.gov is the U.S. government's official web portal to all federal, state and local government web resources and services.